34,2014-05-04 18:05:37,1399226737,59.76958,-5.63268,2,1,2014-05-04 18:05:43,1399226743,9.663,11,11.2,0,0,59.7513,-5.6578,28,5
35,2014-05-04 19:05:11,1399230311,59.70011,-4.55126,92,1,2014-05-04 19:05:09,1399230309,9.706,11,11.2,0,0,59.7508,-5.6462,3,4
36,2014-05-04 20:05:10,1399233910,59.71283,-8.63268,188,1,2014-05-04 20:05:03,1399233903,9.663,11,11.2,0,0,59.747,-5.6314,3,5
37,2014-05-04 21:05:11,1399237511,59.72365,-5.55494,2,1,2014-05-04 21:05:01,1399237501,9.749,29,11.1,0,0,59.7463,-5.6146,3,5
38,2014-05-04 22:06:02,1399241162,59.65939,-8.6922,187,1,2014-05-04 22:05:37,1399241137,9.663,29,11.2,0,0,59.746,-5.5947,54,5
39,2014-05-04 23:05:10,1399244710,59.72063,-5.6257,6,3,2014-05-04 23:05:07,1399244707,9.663,29,11.2,0,0,59.7471,-5.5779,3,4
40,2014-05-05 00:05:12,1399248312,59.77559,-5.49096,3,3,2014-05-05 00:05:20,1399248320,9.663,29,11.2,0,0,59.7493,-5.5606,3,4
41,2014-05-05 01:05:12,1399251912,59.72365,-5.55494,5,1,2014-05-05 01:05:31,1399251931,9.663,34,11.1,0,0,59.7526,-5.5457,3,5
42,2014-05-05 02:05:09,1399255509,59.79812,-4.92344,75,1,2014-05-05 02:05:09,1399255509,9.663,34,11.2,0,0,59.7568,-5.5352,3,1
43,2014-05-05 03:05:23,1399259123,59.77261,-5.56183,3,1,2014-05-05 03:05:10,1399259110,9.663,34,11.2,0,0,59.7617,-5.5276,3,4
44,2014-05-05 04:05:14,1399262714,59.78489,-4.42056,93,0,2014-05-05 04:05:12,1399262712,9.663,34,11.2,0,0,59.7666,-5.5231,3,5
45,2014-05-05 05:05:12,1399266312,59.77559,-5.49096,5,1,2014-05-05 05:05:13,1399266313,9.663,29,11.1,0,0,59.7703,-5.5225,3,3
46,2014-05-05 06:05:13,1399269913,59.80349,-5.56874,15,0,2014-05-05 06:05:01,1399269901,9.62,29,11.2,0,0,59.7743,-5.5221,3,5
47,2014-05-05 07:05:12,1399273512,59.77559,-5.49096,1,0,2014-05-05 07:05:12,1399273512,9.62,29,11.2,0,0,59.7779,-5.5207,3,5
48,2014-05-05 08:05:11,1399277111,59.77261,-5.56183,2,0,2014-05-05 08:05:12,1399277112,9.663,29,11.2,0,0,59.78,-5.5161,3,5
49,2014-05-05 09:05:21,1399280721,59.82454,-5.49778,8,2,2014-05-05 09:05:36,1399280736,9.663,31,11.1,0,0,59.7821,-5.5076,3,5
50,2014-05-05 10:05:17,1399284317,59.80648,-5.49778,8,0,2014-05-05 10:05:09,1399284309,9.663,31,11.2,0,0,59.7854,-5.4962,3,3
51,2014-05-05 11:05:08,1399287908,59.77854,-5.42008,4,0,2014-05-05 11:05:06,1399287906,9.706,31,11.1,0,0,59.7881,-5.4802,3,5
52,2014-05-05 12:05:58,1399291558,59.77854,-5.42008,3,59,2014-05-05 12:05:10,1399291510,9.749,31,11.2,0,0,59.7905,-5.4644,50,5
53,2014-05-05 13:05:14,1399295114,59.80944,-5.42681,5,2,2014-05-05 13:05:43,1399295143,9.749,28,11.1,0,0,59.7933,-5.4488,3,3
54,2014-05-05 14:05:24,1399298724,59.80648,-5.49778,2,2,2014-05-05 14:05:43,1399298743,9.706,28,11.1,0,0,59.7966,-5.4372,3,5
55,2014-05-05 15:05:12,1399302312,59.97416,-8.34295,184,2,2014-05-05 15:05:38,1399302338,9.706,28,11.1,0,0,59.8187,-5.422,3,5
56,2014-05-05 16:05:11,1399305911,59.78146,-5.34918,2,2,2014-05-05 16:05:49,1399305949,9.706,28,11.2,0,0,59.8032,-5.427,3,4
57,2014-05-05 17:05:11,1399309511,59.94321,-7.82642,148,2,2014-05-05 17:05:41,1399309541,9.663,31,11.1,0,0,59.8052,-5.4289,3,5
58,2014-05-05 18:05:11,1399313111,59.80648,-5.49778,1,2,2014-05-05 18:05:13,1399313113,9.663,31,11.2,0,0,59.808,-5.4325,3,5
59,2014-05-05 19:05:12,1399316712,59.80648,-5.49778,4,2,2014-05-05 19:05:42,1399316742,9.663,31,11.2,0,0,59.8118,-5.4343,3,3
60,2014-05-05 20:05:13,1399320313,59.69778,-11.24018,332,1,2014-05-05 20:05:05,1399320305,9.663,31,11.1,0,0,59.8161,-5.432,3,4
61,2014-05-05 21:05:22,1399323922,59.77854,-5.42008,4,2,2014-05-05 21:05:06,1399323906,9.663,32,11.1,0,0,59.8205,-5.4268,3,5
62,2014-05-05 22:05:22,1399327522,59.77854,-5.42008,11,1,2014-05-05 22:05:43,1399327543,9.706,32,11.1,0,0,59.824,-5.4161,3,2
63,2014-05-05 23:05:10,1399331110,59.83041,-5.35583,3,1,2014-05-05 23:05:09,1399331109,9.663,32,11.2,0,0,59.8237,-5.4014,3,3
64,2014-05-06 00:05:14,1399334714,59.77854,-5.42008,3,6,2014-05-06 00:05:14,1399334714,9.663,32,11.2,0,0,59.8262,-5.3806,3,5
65,2014-05-06 01:05:13,1399338313,59.83041,-5.35583,2,1,2014-05-06 01:05:45,1399338345,9.663,31,11.1,0,0,59.8318,-5.3625,3,5
66,2014-05-06 02:05:08,1399341908,59.74072,-7.13384,119,1,2014-05-06 02:05:03,1399341903,9.663,31,11.1,0,0,59.8363,-5.3471,3,3
67,2014-05-06 03:05:12,1399345512,59.83041,-5.35583,2,7,2014-05-06 03:05:31,1399345531,9.663,31,11.2,0,0,59.8422,-5.3323,3,5
68,2014-05-06 04:05:25,1399349125,59.83328,-5.28482,3,0,2014-05-06 04:05:11,1399349111,9.663,31,11.2,0,0,59.8473,-5.3222,18,5
69,2014-05-06 05:05:09,1399352709,59.8642,-5.2914,1,0,2014-05-06 05:05:11,1399352711,9.663,29,11.1,0,0,59.8533,-5.3146,3,5
70,2014-05-06 06:05:11,1399356311,59.92535,-4.08052,96,2,2014-05-06 06:05:43,1399356343,9.663,29,11.1,0,0,59.8581,-5.3091,3,5
71,2014-05-06 07:05:53,1399359953,59.83328,-5.28482,4,1,2014-05-06 07:05:43,1399359943,9.663,29,11.1,0,0,59.8618,-5.3024,43,5
72,2014-05-06 08:05:08,1399363508,59.88222,-5.2914,9,186,2014-05-06 08:05:07,1399363507,9.663,29,11.2,0,0,59.8636,-5.2933,3,5
73,2014-05-06 09:05:39,1399367139,59.8642,-5.2914,3,189,2014-05-06 09:05:07,1399367107,9.706,30,11.1,0,0,59.8663,-5.2858,32,5
74,2014-05-06 10:05:14,1399370714,59.83328,-5.28482,6,188,2014-05-06 10:05:43,1399370743,9.749,30,11.2,0,0,59.8688,-5.2748,3,5
75,2014-05-06 11:05:08,1399374308,59.86704,-5.22029,3,190,2014-05-06 11:05:09,1399374309,9.835,30,11.1,0,0,59.8721,-5.262,3,5
76,2014-05-06 12:05:20,1399377920,59.88222,-5.2914,2,190,2014-05-06 12:05:16,1399377916,9.964,30,11.2,0,0,59.8765,-5.2471,3,5
77,2014-05-06 13:05:42,1399381542,59.8642,-5.2914,2,2,2014-05-06 13:05:44,1399381544,9.964,28,11.1,0,0,59.8832,-5.2313,28,5
78,2014-05-06 14:05:11,1399385111,59.86985,-5.14917,2,0,2014-05-06 14:05:38,1399385138,10.05,28,11.1,0,0,59.8911,-5.2142,3,5
79,2014-05-06 15:05:11,1399388711,60.2206,-10.09166,282,2,2014-05-06 15:05:05,1399388705,10.136,28,11.1,0,0,59.8989,-5.1971,3,5
80,2014-05-06 16:05:13,1399392313,59.91599,-5.2268,2,1,2014-05-06 16:05:26,1399392326,9.835,28,11.1,0,0,59.9067,-5.1825,3,5
81,2014-05-06 17:05:10,1399395910,59.91599,-5.2268,2,2,2014-05-06 17:05:08,1399395908,10.007,32,11.1,0,0,59.914,-5.1695,3,5
82,2014-05-06 18:05:17,1399399517,59.88787,-5.14917,2,1,2014-05-06 18:05:12,1399399512,10.007,32,11.1,0,0,59.9212,-5.1574,3,2
83,2014-05-06 19:05:11,1399403111,59.9895,-6.7517,115,1,2014-05-06 19:05:06,1399403106,10.007,32,11.1,0,0,59.9262,-5.144,3,5
84,2014-05-06 20:05:10,1399406710,59.9188,-5.15558,3,2,2014-05-06 20:05:13,1399406713,9.878,32,11.1,0,0,59.9295,-5.1322,3,5
85,2014-05-06 21:05:15,1399410315,59.92157,-5.08436,3,2,2014-05-06 21:05:05,1399410305,9.878,25,11.1,0,0,59.9327,-5.1221,3,5
86,2014-05-06 22:05:11,1399413911,59.9188,-5.15558,2,2,2014-05-06 22:05:12,1399413912,9.835,25,11.2,0,0,59.9359,-5.1106,3,3
87,2014-05-06 23:05:11,1399417511,59.92157,-5.08436,2,2,2014-05-06 23:05:43,1399417543,9.878,25,11.1,0,0,59.9401,-5.0917,3,5
88,2014-05-07 00:05:13,1399421113,59.92431,-5.01311,3,2,2014-05-07 00:05:12,1399421112,9.878,25,11.1,0,0,59.9426,-5.0657,3,5
89,2014-05-07 01:05:12,1399424712,59.92157,-5.08436,1,8,2014-05-07 01:05:09,1399424709,9.835,30,11.1,0,0,59.945,-5.0379,3,5
90,2014-05-07 02:05:10,1399428310,59.927,-4.94186,3,3,2014-05-07 02:05:05,1399428305,9.835,30,11.2,0,0,59.9472,-5.0129,3,5
91,2014-05-07 03:05:11,1399431911,59.95797,-4.94802,2,2,2014-05-07 03:05:12,1399431912,9.835,30,11.1,0,0,59.9494,-4.9904,3,5
92,2014-05-07 04:05:10,1399435510,59.88813,-6.80587,122,3,2014-05-07 04:05:33,1399435533,9.835,30,11.1,0,0,59.953,-4.9697,3,5
93,2014-05-07 05:05:08,1399439108,59.97324,-5.01937,2,2,2014-05-07 05:05:07,1399439107,9.835,31,11.1,0,0,59.9559,-4.9531,3,5
94,2014-05-07 06:05:20,1399442720,59.9786,-4.87666,4,2,2014-05-07 06:05:13,1399442713,9.835,31,11.1,0,0,59.9582,-4.94,3,5
95,2014-05-07 07:05:12,1399446312,59.9786,-4.87666,3,4,2014-05-07 07:05:09,1399446309,9.792,31,11.2,0,0,59.9603,-4.9314,3,5
96,2014-05-07 08:05:11,1399449911,59.92966,-4.87058,14,2,2014-05-07 08:05:12,1399449912,9.792,31,11.1,0,0,59.9624,-4.9243,3,5
97,2014-05-07 09:05:20,1399453520,59.9786,-4.87666,2,3,2014-05-07 09:05:36,1399453536,9.792,31,11.1,0,0,59.965,-4.9178,3,5
98,2014-05-07 10:05:12,1399457112,59.927,-4.94186,4,2,2014-05-07 10:05:38,1399457138,9.749,31,11.1,0,0,59.9373,-4.8562,3,5
99,2014-05-07 11:05:46,1399460746,59.97594,-4.94802,2,2,2014-05-07 11:05:11,1399460711,9.792,31,11.1,0,0,59.9714,-4.897,37,4
100,2014-05-07 12:05:27,1399464327,59.92966,-4.87058,2,1,2014-05-07 12:05:12,1399464312,9.835,31,11.1,0,0,59.975,-4.8822,18,5
101,2014-05-07 13:06:33,1399467993,60.00958,-4.88276,4,5,2014-05-07 13:05:15,1399467915,9.835,29,11.1,0,0,59.9792,-4.8617,75,3
102,2014-05-07 14:05:17,1399471517,59.9786,-4.87666,3,1,2014-05-07 14:05:43,1399471543,9.835,29,11.1,0,0,59.9816,-4.8388,3,5
103,2014-05-07 15:05:20,1399475120,59.9786,-4.87666,3,2,2014-05-07 15:05:13,1399475113,9.835,29,11.1,0,0,59.9852,-4.8196,3,5
104,2014-05-07 16:05:27,1399478727,59.98122,-4.80529,3,2,2014-05-07 16:05:09,1399478709,9.835,29,11.1,0,0,59.989,-4.8021,18,4
105,2014-05-07 17:05:18,1399482318,59.98122,-4.80529,11,3,2014-05-07 17:05:09,1399482309,9.835,32,11.1,0,0,59.9927,-4.7868,3,5
106,2014-05-07 18:05:09,1399485909,59.98122,-4.80529,6,2,2014-05-07 18:05:09,1399485909,9.835,32,11.2,0,0,59.9965,-4.7747,3,4
107,2014-05-07 19:05:13,1399489513,60.24288,-8.70222,228,2,2014-05-07 19:05:13,1399489513,9.835,32,11.1,0,0,60.0006,-4.7643,3,5
108,2014-05-07 20:05:10,1399493110,60.03273,-4.73981,8,2,2014-05-07 20:05:42,1399493142,9.835,32,11.1,0,0,60.004,-4.7559,3,2
109,2014-05-07 21:05:28,1399496728,59.98381,-4.73389,2,2,2014-05-07 21:05:13,1399496713,9.835,28,11.1,0,0,60.0067,-4.7479,20,3
110,2014-05-07 22:05:12,1399500312,59.98635,-4.66249,2,2,2014-05-07 22:05:12,1399500312,9.835,28,11.1,0,0,60.0092,-4.7401,3,5
111,2014-05-07 23:05:47,1399503947,59.98381,-4.73389,4,2,2014-05-07 23:05:09,1399503909,9.835,28,11.1,0,0,60.0116,-4.7305,27,5
112,2014-05-08 00:05:12,1399507512,60.03528,-4.66832,4,2,2014-05-08 00:05:12,1399507512,9.835,28,11.1,0,0,60.0131,-4.7188,3,5
113,2014-05-08 01:05:12,1399511112,59.98635,-4.66249,7,2,2014-05-08 01:05:42,1399511142,9.792,30,11.1,0,0,60.0154,-4.7042,3,5
114,2014-05-08 02:05:12,1399514712,60.0378,-4.59681,4,2,2014-05-08 02:05:13,1399514713,9.792,30,11.1,0,0,60.0176,-4.6877,3,5
115,2014-05-08 03:05:11,1399518311,60.03273,-4.73981,3,2,2014-05-08 03:05:09,1399518309,9.792,30,11.1,0,0,60.0198,-4.6719,3,5
116,2014-05-08 04:05:12,1399521912,59.85832,-8.60495,231,2,2014-05-08 04:05:03,1399521903,9.749,30,11.2,0,0,60.0223,-4.6585,3,5
117,2014-05-08 05:05:11,1399525511,60.0688,-4.60256,4,2,2014-05-08 05:05:38,1399525538,9.792,31,11.1,0,0,60.0251,-4.6456,3,2
118,2014-05-08 06:05:19,1399529119,60.01213,-5.60354,123,2,2014-05-08 06:05:43,1399529143,9.792,31,11.1,0,0,60.0287,-4.6377,3,4
119,2014-05-08 07:05:12,1399532712,60.0378,-4.59681,2,1,2014-05-08 07:05:09,1399532709,9.792,31,11.1,0,0,60.0319,-4.633,3,5
120,2014-05-08 08:05:12,1399536312,59.93624,-2.36211,143,1,2014-05-08 08:05:22,1399536322,9.792,31,11.1,0,0,60.0359,-4.6318,3,5
121,2014-05-08 09:05:11,1399539911,60.01735,-4.66832,2,2,2014-05-08 09:05:34,1399539934,9.835,32,11.1,0,0,60.0404,-4.6324,3,5
122,2014-05-08 10:05:26,1399543526,60.1202,-4.53663,23,2,2014-05-08 10:05:08,1399543508,9.835,32,11.1,0,0,60.0446,-4.6313,18,5
123,2014-05-08 11:05:11,1399547111,60.09731,-4.68002,5,1,2014-05-08 11:05:07,1399547107,9.835,32,11.1,0,0,60.0489,-4.628,3,2
124,2014-05-08 12:05:11,1399550711,60.03528,-4.66832,5,2,2014-05-08 12:05:43,1399550743,9.878,32,11.1,0,0,60.0542,-4.6251,3,5
125,2014-05-08 13:05:17,1399554317,60.0688,-4.60256,3,2,2014-05-08 13:05:44,1399554344,9.921,27,11.1,0,0,60.059,-4.616,13,2
126,2014-05-08 14:05:09,1399557909,60.06629,-4.67416,4,2,2014-05-08 14:05:14,1399557914,10.007,27,11.1,0,0,60.0642,-4.6028,3,5
